Theta_e
325 320 314 314 313 316 309 303 301 296 292 288 285 291 294 292 292 293 294 294 297 298 296 299 296 298 300 298 298 302 300 298 296 297 299 308 315 323 324 333 336 336 341 345 346 348 348 346 348 346 347 349 350 350 349 349 350 350 349 348 348 348 347 347 348 347 348 349 348 348 348 348 347 346 346 346 345 345 344 343 342 340 338 337 339 340 340 339 339 339 339 339 339 338 339 340 341
316 315 314 312 317 315 310 297 291 288 287 287 288 287 290 290 293 292 294 293 296 304 300 303 304 303 303 305 305 304 302 307 300 312 307 310 319 324 325 333 336 339 344 347 348 348 346 347 346 346 346 346 349 349 349 349 349 349 348 348 348 347 347 347 347 348 348 348 348 347 347 346 346 345 345 345 345 344 344 344 341 339 338 337 339 340 340 338 338 338 338 339 339 338 337 340 341
317 313 317 315 311 307 302 299 300 283 286 287 287 289 290 293 292 292 291 294 298 301 292 295 298 298 301 302 302 299 300 309 312 309 318 319 323 325 326 330 337 339 345 349 348 346 345 345 343 345 347 346 348 349 349 349 348 348 348 347 347 347 347 347 347 346 346 347 347 347 346 346 345 345 345 345 345 344 344 342 340 338 336 335 338 339 339 339 338 338 337 337 338 337 338 340 344
315 314 314 310 309 302 296 291 288 288 285 285 286 289 289 291 292 293 294 292 296 293 295 300 302 301 302 300 301 302 303 308 315 316 315 321 322 325 326 328 335 343 346 349 347 343 343 343 342 344 346 345 347 349 349 349 348 347 347 347 346 346 346 346 346 346 346 346 347 346 345 346 345 345 345 344 344 344 342 340 339 337 335 335 337 338 338 338 338 337 337 337 337 336 339 343 343
315 316 311 308 304 302 293 287 286 287 289 285 291 289 290 290 295 290 294 292 291 293 296 299 302 302 301 302 300 302 305 306 306 311 316 318 319 323 326 329 337 344 346 347 346 343 344 340 342 342 345 345 346 348 349 348 348 347 348 348 346 346 346 345 346 346 346 346 345 345 346 345 345 345 345 344 343 343 341 339 337 335 334 335 336 338 338 337 337 337 336 336 337 337 340 340 341
310 306 308 307 305 301 295 292 291 291 289 287 289 294 289 291 293 291 294 291 292 292 295 297 301 302 304 307 306 308 309 306 309 314 316 323 325 326 328 329 342 343 346 347 347 343 344 338 340 343 345 346 346 347 348 348 347 347 346 346 346 346 346 345 346 346 346 346 345 345 345 345 345 345 344 343 343 343 341 339 336 333 332 333 336 338 337 336 336 336 335 337 339 340 340 341 341
315 305 303 305 299 299 294 287 288 287 294 288 293 290 291 290 292 292 295 296 295 296 292 300 299 300 301 301 300 311 314 318 319 322 321 327 327 328 327 332 344 344 346 346 348 344 341 339 343 344 342 345 344 345 347 347 347 347 346 345 345 345 345 346 346 346 346 346 345 343 343 344 344 344 343 343 342 342 341 339 335 332 330 332 336 337 337 336 336 335 334 337 339 339 339 339 339
310 310 301 298 292 292 288 286 289 287 294 288 291 290 290 289 289 293 292 295 296 298 299 297 292 299 299 303 300 307 307 312 322 318 318 322 328 330 329 337 342 344 346 348 347 345 341 339 340 345 343 343 344 344 346 347 346 347 347 345 345 346 346 346 346 346 347 346 345 344 343 344 344 343 343 342 342 341 340 337 334 332 330 332 336 336 335 335 335 334 334 336 337 337 337 337 336
303 301 295 297 292 288 286 290 290 288 288 288 290 289 301 290 290 292 294 292 295 292 299 299 295 298 296 301 300 305 306 309 304 307 319 327 329 333 332 339 342 342 343 346 348 345 343 338 338 341 344 343 343 343 346 347 347 347 346 345 345 346 346 346 346 346 347 346 344 344 343 343 343 342 342 341 341 340 339 337 335 332 332 334 335 335 334 334 334 334 334 334 336 336 334 333 331
300 303 298 293 290 290 284 289 290 292 291 291 291 293 290 289 291 293 294 295 295 296 298 295 294 298 298 300 301 304 307 304 303 321 322 327 331 335 337 339 342 341 342 346 346 346 344 341 338 341 343 343 342 342 344 345 347 347 346 346 346 346 346 346 346 346 346 346 345 344 343 342 341 342 341 341 340 339 338 337 335 333 332 334 335 334 334 334 333 334 332 333 334 333 330 328 327
297 295 294 293 286 286 289 289 285 288 291 290 290 290 291 290 291 291 291 295 292 297 298 295 300 298 300 300 301 305 302 303 320 320 320 325 330 332 334 335 338 343 342 342 345 347 345 345 340 337 341 342 341 343 345 347 347 347 347 347 346 346 346 346 346 346 346 345 344 344 343 342 341 340 341 340 340 339 337 336 335 333 331 331 331 332 332 332 332 333 331 332 332 330 328 326 324
298 292 292 286 286 288 286 289 289 288 290 289 295 293 291 292 292 293 294 296 295 294 296 297 301 299 298 294 302 304 302 305 305 311 321 326 329 329 329 328 331 332 335 340 344 343 345 345 344 339 337 340 339 342 342 344 346 346 347 347 347 346 346 345 346 346 345 344 344 343 342 341 340 341 341 340 339 338 337 336 334 333 330 328 328 329 329 330 331 331 330 329 328 327 325 324 323
294 291 290 290 288 288 286 287 290 294 287 290 294 294 290 293 295 293 291 293 291 295 296 295 295 299 298 297 300 298 303 303 311 318 321 324 327 326 324 324 327 327 326 330 331 329 332 336 340 341 336 333 335 337 338 340 342 345 346 346 346 346 346 346 345 346 345 344 344 343 342 341 341 341 340 339 338 337 336 334 333 333 331 328 326 326 327 328 328 327 327 326 325 324 323 323 322
294 292 293 291 284 284 286 288 285 290 290 292 290 292 292 294 293 291 293 295 293 294 297 296 298 298 300 298 301 299 300 303 316 317 316 319 322 322 321 322 323 323 322 323 324 324 324 328 330 333 336 340 341 336 334 335 337 342 344 343 342 343 344 345 344 344 344 343 342 340 339 338 339 340 340 338 337 336 335 334 333 333 331 329 327 326 326 327 326 326 325 324 324 323 322 322 322
296 290 288 285 284 288 285 290 290 287 291 290 294 291 292 295 290 289 295 294 295 294 297 299 298 297 296 297 296 297 299 305 317 314 315 318 320 320 320 320 320 321 320 320 321 321 322 324 325 327 330 333 341 342 340 337 333 335 338 339 339 342 342 340 340 341 339 339 338 336 335 334 334 335 335 335 335 334 332 331 333 332 331 329 328 327 324 324 325 326 326 326 324 324 323 322 321
293 291 288 289 287 286 289 288 283 287 291 290 293 289 293 295 291 294 293 296 296 298 296 300 300 297 297 298 300 298 299 303 317 312 316 318 319 319 320 319 319 318 318 318 318 319 321 321 323 324 325 328 330 340 342 340 331 330 334 336 337 338 338 337 338 336 332 330 330 330 329 333 331 333 327 332 330 332 330 330 331 332 331 329 328 327 323 323 324 324 324 324 324 323 322 320 319
294 292 289 284 289 287 289 289 288 291 290 290 290 292 294 294 295 293 294 295 298 297 295 297 299 298 295 296 299 299 302 306 314 312 317 317 319 319 319 320 319 317 316 316 316 317 318 319 319 322 323 325 327 330 341 339 336 330 330 328 330 333 334 333 332 326 322 321 323 323 326 339 339 337 337 334 325 332 323 325 330 331 329 328 328 326 325 325 325 324 323 322 320 318 315 315 314
291 290 286 288 284 286 289 291 290 290 291 293 292 292 293 293 295 298 296 296 294 295 298 297 298 298 299 299 299 301 302 315 312 317 316 318 317 320 319 315 315 317 315 315 315 315 316 318 318 319 322 323 326 327 336 341 338 335 338 337 337 333 329 327 332 336 331 334 323 330 336 336 337 336 335 330 332 329 327 323 325 329 328 327 327 326 326 325 324 324 323 321 319 315 312 310 308
289 284 286 290 285 290 291 290 291 293 296 291 292 289 292 294 294 296 295 294 293 298 297 296 298 297 301 302 302 309 313 314 312 314 315 316 318 321 319 312 313 313 314 313 314 313 314 316 316 317 320 322 324 325 328 340 339 340 340 338 335 331 331 331 336 335 336 335 336 336 334 335 335 335 334 332 331 323 327 322 325 327 328 327 326 325 325 325 324 323 321 318 315 312 310 309 307
289 290 291 283 287 290 289 290 292 291 291 291 292 291 291 294 294 294 296 292 292 295 294 296 296 299 299 301 304 311 315 312 309 310 311 310 310 315 314 315 312 310 310 311 311 313 314 314 315 317 319 321 323 325 325 334 338 340 339 338 336 335 335 335 336 336 335 335 335 336 335 334 334 336 327 324 325 330 327 321 321 321 321 321 320 322 322 322 321 319 317 314 312 311 309 307 305
292 287 284 292 287 293 292 287 289 289 290 291 290 290 293 294 292 295 292 294 293 293 293 298 298 298 298 300 302 309 312 312 306 306 306 304 302 303 306 306 308 308 308 309 310 311 312 313 314 317 319 321 323 323 326 331 335 338 339 338 335 334 334 334 335 336 335 334 334 335 334 333 334 334 333 332 333 331 330 329 328 326 322 320 317 318 318 317 316 315 313 311 310 309 307 305 304
289 291 289 288 286 293 293 288 287 288 288 291 288 293 295 293 294 291 293 294 294 294 296 295 297 296 299 300 301 306 311 311 306 304 305 305 304 303 303 305 304 305 307 310 309 309 311 312 314 316 319 322 324 326 329 330 333 337 338 337 335 335 334 333 333 334 335 335 334 335 334 334 333 333 332 333 332 332 330 329 328 325 322 319 319 318 316 316 314 313 310 309 307 306 305 303 302
294 291 288 288 287 293 290 288 288 288 290 290 291 294 293 293 294 289 292 296 295 292 293 293 293 295 299 302 301 305 308 310 306 304 302 302 300 300 302 302 305 309 308 308 308 309 311 313 315 317 320 324 326 330 330 330 330 330 331 334 335 333 333 332 332 331 333 335 334 334 333 332 332 333 332 332 330 331 329 328 326 324 322 320 319 316 315 315 312 310 308 306 305 304 302 302 300
289 292 290 292 287 293 290 293 288 287 291 291 291 293 295 291 296 291 291 294 293 292 294 295 295 294 300 301 301 305 307 307 304 301 301 303 301 300 302 305 306 306 307 308 309 310 311 312 313 316 320 324 328 330 329 328 328 328 327 327 328 327 330 331 330 329 327 329 333 333 333 333 332 332 332 331 331 330 328 327 326 324 322 320 318 316 314 312 310 308 306 305 303 303 301 300 300
292 292 291 291 289 291 289 288 287 288 290 290 291 294 295 291 294 291 293 296 293 296 296 297 297 298 299 300 300 301 301 299 299 297 297 299 299 301 300 303 306 307 307 307 309 310 311 311 313 316 318 323 328 327 325 325 327 325 326 325 324 322 324 325 325 327 327 325 325 327 330 331 331 331 328 326 325 326 326 326 325 324 321 318 316 315 313 310 308 306 305 304 303 301 300 299 299
293 293 290 291 292 290 290 289 288 290 293 290 294 292 291 290 292 294 298 293 292 295 296 297 297 298 298 300 300 300 300 300 299 299 301 300 299 302 303 305 306 306 307 308 309 310 311 312 312 314 316 318 324 324 323 322 322 321 320 320 320 321 321 322 323 323 324 324 324 324 325 328 326 323 321 321 322 321 323 324 323 320 319 317 315 312 311 309 307 305 305 304 301 300 299 299 298
291 290 290 292 292 291 292 293 291 290 292 291 294 292 293 292 293 295 292 293 294 296 295 295 297 298 298 298 298 298 299 299 299 299 298 299 299 302 303 305 306 306 307 308 309 309 311 311 311 312 314 316 320 321 320 319 318 319 318 318 318 318 319 321 321 320 321 322 323 324 323 323 322 321 320 319 320 320 319 318 317 315 313 312 310 308 308 307 306 305 304 302 300 298 298 297 296
290 290 291 292 290 292 291 291 292 292 297 289 294 293 291 292 293 295 296 293 294 295 294 295 295 297 297 297 297 297 298 297 298 298 300 299 301 301 303 305 306 306 306 307 308 309 310 310 310 311 312 314 316 316 316 316 316 315 315 316 316 316 317 317 317 318 317 318 320 321 322 321 321 320 319 318 318 317 315 314 312 309 308 308 307 306 306 306 305 304 303 301 299 298 296 295 295
291 292 294 291 287 296 290 293 290 291 295 290 292 293 292 291 291 296 292 293 294 294 294 294 294 295 295 295 296 296 298 297 296 298 299 300 300 302 304 305 306 305 307 307 307 308 308 309 309 310 311 312 313 313 313 314 313 313 313 313 312 313 315 316 315 314 315 316 317 319 318 319 318 317 315 313 313 313 310 307 306 305 305 305 305 306 306 305 304 302 300 299 297 295 294 293 294
292 291 291 292 288 288 292 290 289 292 294 288 293 290 289 291 296 294 292 293 293 294 294 294 294 293 293 293 295 296 295 295 296 298 298 298 299 302 304 305 306 306 307 306 307 307 308 308 309 309 310 310 310 311 311 311 311 311 311 311 311 310 311 311 310 311 312 313 313 315 316 316 315 313 311 309 309 307 305 304 303 303 305 306 305 305 304 304 303 301 300 300 296 294 293 293 292
293 291 286 286 287 287 290 289 289 293 292 290 293 290 291 290 291 290 290 293 294 295 295 294 293 292 292 293 294 296 295 295 297 297 296 297 299 303 305 306 305 306 306 305 306 306 306 307 307 307 308 308 308 308 308 307 309 309 308 308 307 308 308 308 308 308 309 309 310 311 312 312 311 310 309 307 305 304 302 301 301 302 304 306 306 306 305 305 303 302 300 296 294 294 293 292 292
286 288 285 280 286 284 287 291 290 293 292 290 293 289 292 295 296 291 290 292 292 294 295 294 293 293 292 292 293 294 295 294 294 294 295 296 299 302 305 305 305 305 305 305 305 306 305 306 306 306 306 306 306 305 306 306 305 305 305 305 305 305 304 303 303 304 305 306 308 308 308 309 309 308 307 305 304 304 303 302 302 303 305 306 306 305 305 303 302 300 299 296 293 293 292 291 292
282 287 284 286 285 283 289 290 286 289 290 293 293 291 287 292 292 290 290 292 291 292 293 292 292 292 292 293 293 294 294 295 294 294 295 296 298 301 304 305 305 305 305 305 305 305 304 304 305 304 304 304 304 303 303 303 302 302 301 301 302 302 301 300 300 301 302 303 304 305 306 306 307 307 305 305 303 303 303 302 302 303 304 305 305 304 304 302 300 298 297 296 295 292 291 290 290
285 283 286 281 286 285 286 288 289 288 291 290 291 289 292 293 292 288 291 291 290 291 293 293 292 292 293 293 293 293 293 295 295 295 295 296 298 300 305 305 305 305 305 305 305 305 304 303 303 303 302 303 303 303 303 302 300 299 299 299 298 298 298 301 300 299 299 300 302 302 304 304 304 304 304 304 303 302 302 301 301 301 303 303 303 302 301 301 300 298 296 296 294 292 290 289 288
280 286 286 286 284 284 285 286 290 290 289 289 287 288 291 293 295 294 291 291 291 292 294 294 293 292 293 293 293 293 294 294 296 296 296 296 297 299 304 304 304 304 304 305 305 304 303 302 301 301 301 301 301 300 301 300 299 299 298 298 297 296 296 296 301 300 298 299 300 301 302 301 301 302 302 303 301 300 299 299 299 298 299 299 299 298 298 298 298 297 295 293 293 292 289 289 288
282 285 283 282 286 285 286 288 287 289 288 287 287 290 292 292 294 295 292 290 291 293 293 292 292 292 292 292 293 293 294 294 296 296 296 296 297 298 301 303 303 304 304 304 303 303 301 301 301 300 300 300 300 299 299 299 299 299 297 298 296 296 296 295 295 296 296 297 298 299 300 299 299 299 300 300 299 298 297 296 296 297 297 298 297 297 296 296 296 294 293 291 289 289 290 289 289
284 283 282 283 285 285 285 286 287 287 289 288 291 290 289 291 292 294 294 290 290 291 292 293 293 293 293 293 293 294 294 295 295 295 295 295 296 298 301 303 302 303 303 303 302 302 301 300 299 298 299 300 299 299 299 299 298 297 297 297 295 294 294 295 293 294 294 294 295 296 297 297 298 298 297 297 296 295 294 294 295 295 296 297 298 297 297 296 295 294 291 291 289 288 288 289 290
287 283 286 285 284 286 286 290 289 287 290 286 286 286 288 289 292 293 293 289 291 291 292 293 294 294 294 294 294 294 295 293 292 293 293 293 295 297 300 303 302 301 301 302 302 301 301 300 299 299 299 300 300 300 300 299 299 300 296 294 294 293 293 293 292 292 292 293 293 294 295 296 296 296 296 296 295 294 293 293 294 295 296 297 297 297 296 295 294 292 291 289 291 289 288 290 290
285 288 285 286 285 285 288 287 287 288 289 288 287 288 292 292 293 294 293 293 294 294 294 296 296 295 294 294 294 294 293 293 293 294 293 294 294 297 299 303 303 302 301 301 302 301 301 300 300 299 299 300 300 299 298 296 295 294 294 293 292 290 291 291 291 291 292 291 291 292 293 294 294 293 294 294 293 294 293 293 293 294 294 295 294 295 295 293 293 292 292 290 288 289 288 288 289
285 284 286 286 284 287 285 286 288 290 289 287 285 288 291 292 293 294 295 295 295 295 294 295 296 296 296 296 295 294 293 293 292 293 293 293 294 296 300 302 302 301 300 301 302 302 301 300 299 299 299 299 298 297 295 293 292 292 292 292 291 291 290 290 290 291 291 290 290 291 291 291 291 291 291 292 291 291 292 291 291 293 293 295 295 293 293 292 292 293 293 292 291 288 289 288 287
284 287 285 285 286 286 287 286 286 286 288 285 287 289 292 293 294 294 295 292 293 295 294 293 294 294 295 296 295 295 295 294 293 292 293 293 293 296 299 302 302 301 300 300 301 302 300 300 299 299 298 297 296 294 293 292 292 291 290 290 290 290 290 290 290 289 289 289 288 289 288 289 289 289 289 290 289 289 289 290 290 291 292 292 294 293 292 292 293 293 293 292 293 291 287 286 286
283 284 289 288 287 288 285 285 288 287 284 285 286 284 282 281 286 290 294 289 292 292 293 295 296 297 296 294 295 295 295 295 294 293 293 293 294 296 299 301 302 301 299 300 301 301 301 300 299 298 297 295 294 293 293 293 292 291 290 291 291 289 289 290 290 289 288 288 287 287 288 288 288 288 288 288 288 288 288 288 289 289 290 290 291 291 290 289 290 291 292 293 292 292 290 286 285
285 286 287 290 288 287 287 286 288 282 282 287 285 285 283 285 289 290 289 287 290 292 291 294 295 296 296 296 296 294 293 292 293 294 294 293 294 295 298 301 301 301 301 299 300 301 301 301 299 297 296 294 294 293 294 294 294 294 294 296 297 294 292 289 287 287 287 287 287 286 286 286 286 287 287 287 287 287 287 287 288 288 288 288 288 288 289 289 289 289 288 290 290 289 290 288 286
283 285 284 287 287 287 286 287 288 285 283 285 285 283 284 286 289 293 294 293 293 294 296 297 297 296 295 295 294 293 292 293 293 293 293 294 294 295 297 301 301 302 300 299 299 299 300 299 297 296 295 294 294 294 294 294 294 294 295 293 293 293 291 287 286 286 286 286 286 285 285 285 285 286 286 286 286 286 286 286 287 287 287 287 288 288 287 286 287 286 287 288 288 288 289 287 285
284 286 284 285 287 286 285 287 283 283 283 283 284 286 285 284 287 286 289 289 291 293 295 297 298 298 294 293 293 293 293 293 293 293 292 293 293 295 298 300 302 302 299 298 297 298 298 297 296 295 294 293 293 293 293 293 293 293 293 291 289 287 286 286 286 286 285 285 284 284 284 284 285 284 285 285 285 286 286 286 286 286 287 286 286 286 286 286 287 286 286 287 287 286 287 287 286
287 284 285 284 283 282 282 282 286 282 281 281 284 286 282 285 287 287 286 289 290 293 296 297 298 295 291 291 291 291 291 292 292 293 293 293 294 296 299 301 302 301 299 298 297 297 297 296 295 293 293 292 292 292 293 292 293 292 291 290 288 286 286 285 285 285 284 285 284 284 284 284 284 284 284 284 284 284 285 285 285 286 285 285 285 285 285 285 285 286 286 286 286 285 285 286 285
287 286 289 286 282 281 280 281 280 280 279 283 285 286 287 282 286 287 288 290 292 295 294 295 295 291 289 289 290 290 290 290 291 291 292 293 294 296 299 300 301 300 298 297 296 296 295 295 294 293 292 292 292 292 292 291 291 292 290 289 287 286 285 285 284 283 283 284 284 283 284 283 284 283 284 283 283 284 284 284 285 285 285 285 284 285 285 285 284 284 284 285 285 285 285 285 284
289 287 284 288 286 279 279 274 277 276 278 280 283 285 286 282 284 286 289 288 286 291 293 294 294 290 290 290 289 289 289 289 290 290 290 291 292 294 298 299 300 299 297 296 295 295 294 294 294 293 292 292 292 291 291 290 291 291 290 289 287 286 285 285 284 283 284 284 284 283 283 283 283 283 283 283 283 283 284 284 284 284 284 284 283 284 283 284 284 284 284 284 283 283 284 283 283
287 287 289 283 276 272 275 272 277 275 279 281 279 282 284 284 289 285 288 292 292 290 292 294 293 292 291 289 288 288 288 289 289 290 290 290 292 293 296 298 299 298 296 296 294 294 294 294 294 293 291 291 291 290 290 289 290 290 289 288 288 287 286 286 285 284 284 284 283 282 282 283 282 283 283 283 283 283 283 283 283 283 283 283 283 283 283 283 283 283 283 283 283 283 283 284 283
286 288 284 280 273 274 271 270 270 271 277 279 281 282 283 286 289 293 295 297 297 294 292 292 292 294 294 291 288 287 287 288 289 290 290 290 291 293 296 298 298 297 297 296 294 293 293 293 293 294 291 291 290 289 289 288 289 289 289 288 287 286 286 286 285 285 284 284 284 283 283 283 283 283 283 283 282 283 283 283 283 282 283 283 283 283 283 283 283 283 283 283 282 282 283 282 282
289 287 290 286 279 274 271 271 276 278 276 275 276 277 279 278 285 287 294 292 285 286 288 290 290 291 291 287 286 286 287 287 288 289 290 290 291 292 295 297 298 297 296 295 294 293 293 292 292 293 291 290 289 289 288 288 288 288 288 287 287 286 286 285 285 285 284 283 283 283 283 283 283 283 283 282 282 282 282 282 282 282 282 282 283 283 283 282 282 282 282 281 281 282 281 281 281
286 286 285 281 284 281 280 274 271 271 272 273 274 281 282 286 287 289 287 287 289 289 288 287 288 289 287 287 287 287 287 288 288 289 289 290 291 292 294 296 297 297 297 295 295 294 293 292 291 292 290 289 289 288 288 288 287 287 287 286 285 285 285 285 285 284 283 284 283 283 283 283 283 282 282 282 282 282 282 282 282 282 282 282 282 282 282 282 282 282 281 281 280 281 281 280 280
285 287 284 286 285 283 274 274 275 273 272 279 275 281 285 286 291 292 293 292 292 291 289 287 289 289 286 287 288 287 288 288 288 289 289 290 290 291 293 295 296 297 296 295 295 294 293 292 291 291 290 289 289 288 288 288 287 286 286 285 285 284 284 284 283 283 283 283 283 283 282 282 282 282 282 282 281 282 282 282 281 281 281 281 281 281 281 281 282 281 281 281 280 280 280 280 280
286 282 286 286 286 285 283 279 273 270 274 278 277 281 284 281 285 284 287 288 291 292 293 293 290 287 288 289 288 288 288 288 288 289 289 290 290 290 292 294 296 296 297 296 295 294 294 293 292 291 289 288 288 288 287 286 285 285 285 284 284 284 284 283 283 282 282 282 282 282 282 281 282 282 282 281 281 281 281 281 281 281 281 281 281 281 281 280 281 281 280 280 280 279 279 279 279
286 284 288 289 283 281 281 276 277 271 274 277 276 278 281 284 288 289 287 287 290 292 291 289 291 291 289 290 289 287 287 287 287 288 288 289 289 290 291 293 294 296 296 296 295 294 293 293 292 292 290 289 288 287 286 286 286 285 285 284 283 283 283 283 283 282 282 282 281 281 281 282 281 281 281 281 281 281 280 280 281 280 280 280 280 280 280 280 280 279 279 279 279 279 279 278 278
287 288 288 286 285 276 279 283 275 278 273 269 278 275 284 288 286 287 291 291 292 292 288 290 291 291 292 291 290 288 287 288 288 288 288 289 289 290 290 291 292 294 295 295 295 293 293 293 291 291 291 289 287 286 286 284 284 285 284 283 283 283 283 282 282 282 281 282 281 281 281 281 281 281 281 281 280 280 280 280 280 280 279 279 279 279 279 279 279 279 279 278 278 278 278 278 277
285 285 284 286 282 284 281 280 279 280 267 268 272 280 286 289 288 289 292 291 291 291 291 292 294 293 289 289 289 289 288 288 288 288 288 288 288 289 289 290 292 292 294 295 294 293 293 292 291 291 290 288 286 285 285 284 284 284 283 283 282 282 282 282 281 282 282 281 281 282 281 282 281 281 280 280 280 280 280 280 279 280 279 279 279 278 278 278 278 278 278 278 278 278 277 277 277
290 290 287 289 284 281 278 281 281 273 277 279 273 281 288 288 286 291 290 291 291 291 291 293 293 290 288 288 288 288 288 288 288 288 288 288 288 288 288 289 290 290 291 293 293 293 292 292 291 291 290 288 286 285 284 284 283 284 283 283 282 282 282 281 281 281 281 281 281 281 281 281 281 280 280 280 280 279 279 279 279 279 279 279 279 278 278 278 278 277 277 277 277 277 277 276 276
Wind_Speed
6 5 4 2 3 1 3 8 1 3 4 1 1 1 1 1 1 2 2 3 0 1 2 1 2 1 1 2 4 5 2 3 2 3 1 1 1 2 2 3 4 3 6 6 5 4 2 2 4 4 4 4 8 8 8 8 9 10 10 10 10 10 11 11 12 12 12 13 13 13 13 13 14 15 15 15 15 15 15 16 16 16 16 17 17 17 17 17 17 17 16 16 15 15 14 14 14
4 5 2 1 1 1 0 1 5 3 6 3 1 1 2 2 1 3 3 3 1 1 3 4 5 6 5 6 7 3 4 2 4 1 3 2 4 1 2 4 3 4 6 6 5 5 3 1 4 4 4 3 6 8 8 8 9 10 10 10 10 10 10 11 11 12 12 12 12 12 13 13 15 15 15 14 15 16 16 16 15 16 16 16 17 17 17 17 17 17 17 16 16 14 14 15 15
2 6 1 2 3 5 3 4 1 1 4 1 2 5 2 1 1 1 5 4 3 5 1 1 1 3 2 1 2 2 2 0 1 1 1 3 2 1 5 4 2 4 5 5 5 5 2 3 3 5 4 2 4 7 8 8 8 10 10 10 10 10 9 10 11 11 11 11 12 12 12 14 14 14 14 14 14 15 16 16 15 15 16 16 17 17 17 17 17 17 17 17 16 15 16 17 19
1 5 1 3 0 4 2 5 4 5 2 2 1 3 4 3 3 4 3 4 2 1 1 0 1 1 1 4 1 1 3 2 1 1 1 1 0 3 5 5 3 3 4 5 4 4 2 1 5 4 4 3 3 7 8 7 8 9 9 9 9 10 9 10 10 10 10 11 12 12 12 13 14 14 14 13 14 15 15 15 16 15 16 16 17 17 17 18 18 18 17 16 17 17 18 19 19
1 3 1 2 5 2 4 2 4 2 1 6 2 3 5 5 4 6 2 3 5 3 1 0 3 2 1 3 1 1 2 0 2 3 2 3 2 3 5 4 3 6 4 6 5 5 4 5 4 5 5 4 2 7 8 8 7 8 8 8 9 9 9 9 10 10 10 10 11 12 12 13 14 14 13 13 14 15 15 15 16 16 16 16 17 17 17 18 18 18 18 18 18 18 18 18 19
3 3 5 4 2 4 5 3 3 1 2 6 1 1 5 7 6 6 1 4 2 5 3 1 0 2 1 2 2 1 3 2 2 3 2 2 5 4 5 4 3 6 5 5 5 4 3 5 4 5 6 7 4 3 9 9 9 8 8 8 8 9 9 9 9 10 9 10 11 12 12 12 13 14 13 14 14 15 15 15 16 16 16 16 17 17 17 18 18 18 18 18 19 20 20 20 20
2 4 6 4 4 4 4 5 3 2 0 5 0 1 6 6 4 4 0 1 0 4 1 0 2 2 3 2 1 3 2 1 2 2 5 4 8 6 4 3 4 5 6 5 5 5 4 4 7 7 4 5 4 1 6 8 9 9 8 8 8 8 8 9 9 9 10 11 11 10 12 13 13 13 13 14 14 14 15 15 16 16 16 16 16 17 17 18 18 18 18 19 19 19 20 20 20
2 2 3 4 1 4 4 3 2 4 1 5 1 2 3 6 6 2 2 2 2 2 1 1 1 1 1 2 1 0 2 3 1 2 3 4 5 4 2 4 6 5 5 7 4 5 7 8 1 3 7 5 4 3 4 7 9 8 7 9 9 8 8 8 9 10 10 10 11 10 11 12 12 13 13 13 14 15 15 15 16 16 16 16 16 17 17 18 18 18 18 18 19 20 20 20 19
6 8 1 6 4 4 4 3 1 3 6 2 6 6 3 4 6 4 1 1 1 1 0 2 0 1 2 1 1 1 2 2 3 3 2 3 2 2 3 4 7 5 5 5 4 5 5 10 6 7 8 8 5 2 6 9 9 10 9 9 8 8 8 9 9 9 10 11 11 11 11 12 12 13 12 13 14 14 15 15 16 16 16 16 16 17 17 18 18 18 19 18 19 19 19 18 18
3 2 0 3 3 3 2 1 2 3 2 2 1 1 5 5 4 0 2 2 1 1 1 2 2 0 1 2 1 1 2 2 2 1 3 3 3 3 3 1 4 6 6 2 6 3 4 9 15 9 5 10 9 7 7 8 9 10 10 9 8 8 8 8 8 9 10 11 11 11 11 11 12 12 13 13 13 14 14 15 16 16 16 17 17 17 17 17 18 18 19 18 18 18 18 18 18
1 6 3 4 5 3 2 3 4 3 2 5 6 8 6 5 4 2 1 0 1 2 0 2 0 3 2 1 3 2 4 2 5 2 4 3 2 3 4 5 4 4 6 5 2 3 2 4 8 11 8 8 9 8 9 7 8 9 9 8 8 7 8 8 8 9 10 11 11 10 10 10 11 13 13 13 14 14 14 15 15 16 16 17 17 17 17 17 17 17 18 18 18 18 18 18 18
1 2 2 4 3 5 4 6 2 3 7 3 2 0 4 7 2 2 1 3 1 0 2 4 0 7 1 3 1 1 3 5 1 1 3 2 4 5 5 5 6 6 7 3 4 1 2 1 2 3 4 12 10 5 5 5 5 7 7 8 8 7 7 8 8 8 10 10 10 10 11 12 11 11 13 13 13 13 14 14 15 16 16 16 17 17 17 17 17 18 17 17 18 18 18 18 18
4 1 7 6 1 1 2 3 2 2 2 5 4 0 3 5 4 4 4 2 2 3 2 6 1 0 1 2 1 4 3 0 1 1 1 2 5 4 4 5 7 7 6 6 7 5 6 5 4 3 1 4 4 8 8 3 4 6 7 7 8 8 8 7 7 8 9 10 10 9 11 10 9 11 12 13 13 13 14 14 15 16 16 16 17 17 17 17 17 18 18 18 18 18 18 19 19
6 6 5 2 2 4 5 2 1 4 4 2 3 1 3 2 3 5 8 3 3 3 1 0 2 2 0 2 1 2 4 2 1 1 1 2 4 4 6 4 6 6 5 6 7 5 5 4 4 3 3 4 4 2 1 4 3 4 7 7 7 8 7 7 7 7 7 8 9 8 9 9 10 10 11 12 13 13 14 14 15 16 16 16 16 17 17 17 18 18 18 19 19 19 19 19 19
4 2 7 6 2 1 2 4 9 6 4 3 2 4 2 3 2 4 7 4 5 2 1 0 1 2 3 6 4 5 4 2 2 0 2 4 5 6 6 4 6 6 5 6 6 6 6 5 4 4 6 6 0 4 4 1 2 1 5 8 7 8 7 6 7 7 7 8 9 9 10 10 9 10 10 11 11 12 12 11 12 15 15 16 16 17 17 18 18 18 19 19 19 20 20 19 19
6 6 5 4 2 4 3 2 1 4 4 6 1 2 3 1 2 4 4 1 1 0 0 3 1 1 0 3 0 1 2 1 2 1 3 7 5 5 5 4 6 5 4 5 6 5 4 5 3 4 4 4 3 1 4 6 6 5 5 6 6 6 8 7 7 7 8 8 9 10 10 9 9 8 10 10 11 12 11 10 11 14 15 16 17 17 17 18 19 19 19 19 19 19 19 19 19
2 5 4 4 2 3 3 3 6 3 3 4 3 2 3 1 0 2 1 2 4 1 3 1 2 1 4 2 1 4 5 3 1 3 6 5 5 4 3 3 3 3 3 5 5 4 4 4 4 4 3 4 3 4 3 4 4 8 6 6 7 7 7 8 8 8 7 7 8 9 9 7 5 5 6 7 9 8 11 11 11 13 15 16 17 17 17 18 19 19 20 20 20 19 18 19 19
2 3 7 1 2 3 7 8 10 1 4 4 4 3 5 2 0 0 0 4 2 1 1 3 2 5 4 3 2 4 3 4 3 7 6 6 4 5 4 2 2 2 2 2 4 4 3 2 3 3 3 4 4 3 2 4 4 5 5 4 5 6 6 7 6 5 6 5 7 6 5 5 4 4 5 6 6 8 9 11 11 12 14 15 16 17 17 18 18 19 19 19 18 17 15 9 10
5 2 2 5 6 4 7 5 7 3 0 4 3 1 2 3 6 3 2 1 1 1 2 1 4 5 1 1 2 3 5 4 4 6 8 9 6 8 6 3 2 1 2 2 1 3 2 3 2 3 4 3 4 3 3 2 5 5 6 4 5 5 5 6 6 5 4 5 5 4 5 4 6 5 5 6 6 9 10 10 10 12 13 14 15 17 17 18 18 18 18 17 17 15 9 8 8
1 3 1 2 9 2 6 6 8 1 5 5 4 2 1 1 2 2 2 2 1 5 4 2 4 8 8 3 2 5 5 5 4 6 7 6 5 6 5 5 3 2 1 1 2 2 3 2 3 3 3 4 2 2 2 1 5 6 6 5 4 4 5 5 6 6 5 5 5 5 4 5 5 4 6 10 11 6 8 11 13 12 12 13 14 11 14 15 17 17 16 14 10 7 8 8 8
1 2 3 1 5 1 2 7 4 4 2 5 4 1 1 1 3 2 3 2 4 7 8 7 10 11 9 7 5 5 6 7 4 4 6 5 3 1 2 1 1 0 1 3 2 4 5 5 4 3 2 1 2 2 2 1 1 5 6 6 5 5 5 7 4 7 6 5 4 4 4 5 4 5 4 4 5 6 6 7 7 6 5 7 10 8 7 7 8 8 8 8 7 8 8 8 7
4 1 1 1 2 1 0 6 2 5 1 8 3 6 4 1 1 2 7 5 7 6 5 10 8 5 8 11 8 7 7 8 6 6 6 7 6 4 2 0 2 2 1 1 3 3 4 4 3 3 4 3 2 1 2 1 1 2 5 6 6 5 3 5 5 5 8 8 5 5 5 4 4 4 6 5 7 7 8 7 7 6 5 6 6 6 6 7 7 7 8 8 7 8 8 8 8
1 2 1 3 1 1 1 2 4 4 3 5 5 3 3 2 1 2 5 10 5 3 2 5 6 5 5 5 9 9 9 10 8 8 7 6 4 3 2 1 1 1 2 2 2 3 4 4 5 4 3 4 4 1 1 1 2 2 3 3 7 6 5 4 4 3 4 8 8 7 6 5 4 3 5 6 7 7 8 7 6 6 6 5 5 6 7 7 8 8 8 8 7 9 9 9 9
5 2 0 1 2 1 1 0 3 1 8 4 2 1 2 3 3 1 3 9 6 2 3 5 6 4 6 9 9 11 11 11 9 5 4 6 6 6 4 3 2 0 2 2 2 3 3 5 4 5 4 4 3 1 2 2 3 2 3 4 2 4 4 4 3 3 2 2 6 8 7 7 8 6 3 5 7 7 7 6 6 7 7 6 5 7 7 7 8 8 8 8 9 8 9 9 9
2 1 1 1 1 1 2 1 2 1 0 0 2 2 1 4 1 1 8 11 4 2 3 3 4 6 6 8 9 8 8 6 6 4 2 2 3 3 2 2 2 2 2 2 2 2 3 3 3 4 4 5 3 2 3 2 4 3 4 4 3 4 1 5 3 3 4 3 3 3 3 4 4 5 5 4 4 5 7 8 8 5 6 7 6 5 6 8 7 7 8 7 8 8 8 8 9
1 1 2 0 1 4 1 3 1 0 0 1 3 3 2 3 1 5 13 6 3 4 4 4 6 7 8 9 9 9 9 9 6 6 6 3 3 5 4 3 3 2 1 1 1 2 3 3 2 2 3 3 0 2 4 2 3 4 4 4 3 4 3 4 4 3 4 4 4 5 3 4 4 5 5 4 6 6 7 6 7 8 5 5 7 7 6 7 7 7 8 8 8 8 8 7 8
1 2 1 3 0 1 2 2 0 0 2 2 2 1 0 2 2 9 2 1 6 5 4 2 5 8 7 7 6 6 8 9 9 5 4 3 4 5 4 3 3 2 2 1 1 1 2 2 2 2 2 3 1 1 4 4 2 5 4 4 2 4 4 6 4 4 3 4 4 6 6 4 6 7 7 7 7 7 7 8 8 6 7 5 5 7 4 7 7 8 8 8 8 7 8 7 8
4 1 1 2 9 1 1 1 1 2 0 3 1 1 0 1 1 11 2 2 3 7 4 3 5 7 7 6 6 4 5 4 4 6 9 8 7 5 5 4 3 2 1 2 1 1 0 2 2 2 2 2 3 3 2 5 4 3 4 4 3 3 4 6 5 4 3 4 4 5 6 6 6 8 8 6 7 8 7 7 7 6 6 4 5 7 8 5 9 9 9 8 7 7 8 7 7
0 0 1 4 7 1 5 0 2 0 2 3 2 2 3 1 7 8 0 2 1 3 6 5 6 6 5 5 4 4 6 5 4 6 7 5 4 4 5 4 4 4 2 2 1 1 1 2 1 2 3 3 4 4 3 5 5 3 4 4 3 2 4 5 5 4 3 4 4 5 6 8 6 8 7 7 7 6 7 8 6 5 4 5 6 10 10 9 9 9 9 9 8 6 8 8 7
0 6 1 2 5 3 3 1 2 2 1 2 0 6 6 10 16 4 0 5 2 1 6 7 6 5 5 5 5 5 4 4 7 7 5 5 6 5 5 5 4 4 4 1 2 2 1 1 1 2 3 4 4 5 6 6 5 4 3 4 3 4 3 4 5 5 3 4 4 5 6 8 6 7 8 6 7 6 6 6 7 6 6 6 8 7 8 7 9 10 9 9 7 6 7 6 7
3 1 4 1 2 3 2 1 0 3 0 0 1 5 8 6 11 6 3 6 8 8 9 7 6 6 6 6 6 7 7 6 7 7 6 5 6 5 5 6 6 5 3 2 3 3 2 2 1 2 3 4 4 5 5 4 3 4 4 4 3 3 4 4 4 4 3 4 5 5 6 6 6 8 6 6 7 7 7 6 6 5 5 6 7 8 10 9 9 10 8 10 7 7 7 7 8
3 1 2 3 2 4 9 2 3 3 1 0 3 4 11 10 10 3 1 5 4 10 8 8 7 7 7 7 7 7 7 6 7 6 7 7 7 6 7 8 6 5 4 3 3 3 3 3 3 3 4 5 5 5 5 4 5 5 4 4 4 3 4 5 4 4 3 4 6 4 5 6 6 9 8 5 6 6 7 7 6 5 5 6 6 8 10 10 9 9 7 8 10 7 7 8 7
6 1 3 1 1 4 8 1 2 2 1 0 5 7 5 7 3 3 1 5 4 6 9 8 8 9 8 7 7 7 6 8 7 8 8 8 7 6 7 7 6 6 5 5 4 4 4 4 4 4 5 5 6 6 6 6 5 6 4 5 5 4 5 5 4 3 4 4 3 4 5 5 5 8 8 6 7 7 7 7 6 7 5 7 8 6 8 9 9 9 7 5 7 9 9 10 8
2 3 2 3 2 1 2 6 0 1 1 3 2 3 10 8 6 4 1 7 4 7 11 10 8 7 8 7 7 8 9 9 12 11 10 9 7 7 7 7 5 6 5 6 5 5 5 5 4 4 4 5 5 6 5 6 5 5 5 5 5 6 6 5 4 4 4 4 4 4 4 5 4 7 7 6 7 7 7 7 7 6 7 8 8 9 7 6 7 8 9 6 5 9 8 9 8
2 1 0 3 1 3 4 1 1 1 1 3 1 7 14 14 13 11 6 7 7 10 12 9 8 8 8 9 9 11 10 11 15 10 10 10 9 8 8 8 6 6 5 6 6 5 5 5 4 5 5 6 6 6 6 7 6 5 5 5 6 6 5 5 5 6 4 3 4 4 4 5 4 7 7 6 8 8 7 6 6 6 5 6 7 7 6 6 7 7 11 9 6 6 9 8 8
3 8 6 3 3 3 3 7 3 3 3 4 6 10 12 12 14 14 4 6 9 11 7 8 9 9 9 10 10 10 13 15 10 8 9 9 8 9 8 7 6 6 6 6 7 6 6 5 5 4 4 6 6 6 5 5 5 4 6 6 7 5 5 5 5 4 3 3 4 4 3 4 5 6 6 6 7 7 7 6 7 6 6 6 8 9 7 7 11 11 10 12 11 8 6 7 6
6 5 4 3 4 5 5 5 6 0 1 9 12 12 10 12 13 13 6 4 6 9 11 12 11 10 11 11 12 14 14 16 5 9 10 10 10 9 8 6 6 6 7 7 7 7 7 7 7 6 6 6 6 6 5 6 6 6 4 4 6 3 4 4 4 3 4 3 4 3 3 4 6 6 6 6 7 7 6 6 6 5 5 6 7 8 9 10 8 9 10 7 12 11 6 3 3
2 4 2 4 3 8 5 1 2 2 3 4 2 4 11 14 13 14 8 3 11 12 13 14 15 14 12 13 15 16 14 1 6 8 9 9 8 9 7 8 8 11 9 8 9 8 8 8 7 7 6 6 5 5 5 3 2 3 5 5 4 4 4 4 4 3 2 2 5 4 2 5 6 5 5 5 6 6 7 6 6 7 6 6 6 7 9 10 10 10 10 9 2 7 6 2 1
3 2 2 1 7 5 10 4 2 2 1 10 5 11 14 11 11 13 11 13 11 11 13 16 15 14 12 13 16 13 6 10 8 10 9 10 10 8 8 10 10 10 9 8 9 9 9 7 7 8 7 7 6 4 4 4 3 4 4 6 4 5 4 4 4 3 3 5 5 3 4 5 5 5 5 5 6 5 5 6 6 6 6 7 9 8 9 10 9 11 10 11 8 3 4 2 2
3 2 1 8 3 2 6 1 3 0 3 3 3 11 14 11 12 16 16 15 12 9 13 16 14 15 15 17 14 11 13 12 14 14 14 11 10 9 12 11 12 9 7 8 10 11 8 7 7 7 7 5 6 6 6 6 6 7 7 6 6 4 5 4 5 4 5 7 5 3 5 5 5 5 5 5 5 6 7 8 7 6 7 6 8 11 9 9 9 8 7 7 10 9 3 2 3
3 5 5 2 2 5 7 5 3 1 1 2 6 10 12 10 13 9 9 5 7 14 11 12 14 14 16 8 6 12 16 15 13 11 10 11 12 15 15 13 11 11 8 10 10 11 6 10 9 8 6 6 5 7 8 8 8 8 7 8 7 8 6 4 4 4 4 4 3 4 4 4 4 4 4 4 4 6 5 5 6 6 7 6 5 8 9 8 7 6 7 8 8 10 6 3 3
3 5 10 8 5 6 4 3 4 7 5 4 3 7 5 5 5 11 9 4 5 6 7 15 18 17 13 13 18 11 8 9 14 15 15 15 12 9 12 13 14 13 10 9 9 9 11 9 8 7 5 5 6 7 8 8 7 11 9 8 6 4 5 4 4 5 5 3 3 3 4 4 4 5 4 5 5 5 6 5 6 7 7 6 5 6 7 6 6 7 6 5 6 2 8 5 4
1 5 7 10 6 2 2 1 2 4 4 2 2 2 12 3 5 7 6 3 11 8 6 13 13 14 11 13 12 8 10 8 7 9 12 13 13 11 13 15 15 15 12 7 7 10 11 11 9 8 7 6 6 8 8 6 6 4 6 8 9 12 9 2 1 2 3 3 3 4 4 4 4 5 5 4 4 4 5 5 6 6 6 6 5 6 6 6 5 6 3 3 3 6 6 6 6
3 2 2 3 4 5 4 3 5 5 1 4 1 2 6 19 7 11 11 10 9 10 14 14 14 14 11 9 7 6 8 11 12 14 14 13 14 15 17 16 13 14 11 8 8 9 12 11 9 8 6 7 7 7 6 6 7 7 7 6 5 6 7 7 5 4 3 3 5 4 4 4 4 4 4 5 4 4 5 6 6 6 7 5 5 5 6 5 4 3 3 4 4 3 4 8 7
3 1 3 4 5 4 3 3 3 0 3 8 2 0 2 10 2 4 3 5 8 13 17 17 16 13 5 6 8 11 12 13 13 13 14 16 15 15 13 14 12 12 10 10 9 8 9 9 8 8 8 7 8 9 8 6 5 6 6 7 8 4 5 5 5 4 4 3 6 4 4 4 4 5 4 5 4 4 4 5 6 6 6 6 5 5 5 5 6 7 6 6 5 4 3 5 6
1 5 7 7 7 7 4 4 3 2 3 8 6 5 4 20 5 4 3 3 8 12 16 16 15 6 4 7 9 8 6 6 7 9 11 12 13 12 11 10 12 12 9 8 9 8 8 8 9 10 8 7 8 10 8 7 7 6 7 6 9 8 6 5 4 6 4 4 5 5 4 4 4 4 4 4 5 4 5 5 5 6 6 6 5 6 6 6 5 6 6 6 6 7 3 4 5
8 4 8 6 7 4 3 6 3 3 5 8 11 11 6 12 2 9 9 9 12 13 8 9 9 4 7 9 7 6 6 6 6 7 7 8 7 9 10 13 12 11 8 8 9 8 9 9 8 10 9 7 9 9 8 8 7 6 7 8 10 12 9 8 8 5 5 4 6 5 4 4 3 4 4 4 4 4 5 5 5 6 5 5 6 6 5 6 5 6 5 6 6 7 6 7 7
5 2 3 4 2 6 3 4 4 1 9 2 3 7 6 12 3 4 6 4 5 7 9 11 9 7 7 5 6 6 6 6 6 7 7 9 9 9 10 12 13 14 12 10 8 8 9 8 9 10 8 8 8 8 7 7 7 6 6 7 9 10 12 9 9 10 8 8 7 7 4 4 4 3 3 4 4 4 5 5 5 5 5 5 5 4 5 5 6 6 5 5 6 6 6 6 6
2 5 7 6 4 6 3 3 2 5 8 0 3 1 5 19 16 2 7 11 7 10 10 11 9 10 9 6 6 6 5 7 8 8 8 9 11 12 13 13 13 15 13 14 9 9 9 9 11 11 9 9 8 8 8 8 8 7 7 8 7 7 9 10 10 8 8 8 7 7 7 6 4 5 4 5 4 5 4 6 5 5 5 5 5 6 6 6 6 6 6 7 6 6 5 6 6
5 8 7 6 0 1 4 4 2 7 7 3 1 1 10 5 8 12 20 20 14 7 11 11 10 13 10 5 4 5 6 7 8 9 9 11 11 11 12 12 13 12 14 14 12 10 9 9 10 13 9 10 10 9 8 9 8 8 7 7 8 8 8 8 8 9 8 7 7 9 8 7 7 6 6 5 5 5 4 4 5 5 5 6 6 6 7 6 6 6 6 7 6 4 5 7 7
11 2 10 10 8 7 4 6 6 8 4 2 6 1 8 3 5 2 12 5 5 6 8 9 10 11 8 3 3 4 6 7 7 9 10 11 11 12 12 12 12 12 14 13 12 10 10 10 11 13 12 11 10 9 9 9 8 8 7 7 7 6 7 8 8 7 8 9 7 8 8 7 7 6 6 5 5 6 5 5 6 6 6 6 6 7 6 6 6 7 6 7 6 4 6 6 6
3 2 5 3 7 6 6 3 3 2 3 4 2 7 3 6 2 6 5 7 9 8 9 7 12 12 8 8 7 7 7 8 8 10 10 10 11 11 11 11 11 12 14 12 15 10 11 11 12 12 11 11 10 11 10 9 9 7 9 10 8 7 5 6 6 5 5 6 9 9 9 8 6 6 5 6 5 6 6 7 6 6 6 6 6 7 7 6 6 7 6 6 8 3 6 7 6
5 6 6 6 2 6 4 2 2 1 2 12 4 10 8 9 13 12 16 13 12 9 7 6 15 8 2 8 6 7 7 8 9 9 10 11 10 11 12 12 11 12 12 13 15 13 12 12 12 11 10 10 11 12 10 9 9 9 9 8 8 8 8 10 9 10 9 8 7 7 8 8 7 6 6 5 7 5 6 6 6 6 5 6 7 6 6 6 6 6 6 7 7 5 5 6 4
9 4 8 2 2 3 4 5 2 4 4 8 4 10 12 3 17 3 2 5 10 12 17 16 5 2 6 10 8 9 10 10 9 9 8 10 11 13 12 11 12 14 14 13 13 11 11 11 13 12 10 11 10 11 10 10 11 11 9 9 9 9 10 9 9 11 9 9 7 6 6 7 8 7 6 6 6 7 6 6 7 6 6 6 6 6 6 6 6 5 6 6 6 6 6 4 3
5 4 5 8 4 2 2 3 4 1 5 7 5 4 11 9 15 2 3 3 7 14 8 3 9 9 11 11 10 8 7 7 9 11 10 10 12 13 14 14 12 12 12 12 11 11 10 10 11 12 12 11 11 10 9 8 9 8 9 10 10 10 8 8 8 9 9 10 10 8 9 8 8 7 8 8 8 7 7 6 7 7 6 7 6 6 6 6 5 6 5 6 5 5 6 6 4
2 2 3 1 3 1 6 7 3 5 6 2 9 2 16 7 9 5 9 12 13 9 5 5 8 11 10 9 7 9 9 10 10 10 11 11 12 12 14 15 14 14 14 13 12 11 12 11 11 11 10 10 11 11 11 11 10 8 7 7 7 8 9 11 10 10 9 10 11 10 10 9 9 8 8 8 8 8 8 8 7 7 7 7 7 6 6 6 5 5 6 6 6 6 6 6 5
1 2 4 1 0 2 4 1 4 4 5 3 3 14 17 10 9 10 11 10 11 8 11 4 9 8 5 6 8 8 9 10 10 9 10 10 11 11 10 10 9 8 10 11 12 13 12 10 12 11 12 10 10 12 11 10 9 9 10 11 11 10 10 8 10 10 11 9 8 8 8 8 8 8 8 8 8 8 8 8 8 8 8 8 8 7 6 6 5 6 5 6 7 6 7 5 5
15 17 15 17 12 5 3 8 2 3 4 7 5 17 19 6 4 9 8 9 7 6 9 4 8 6 6 5 7 8 7 8 8 8 8 9 9 10 8 8 8 9 11 12 11 11 12 13 11 11 10 11 11 9 10 10 9 9 11 11 10 7 8 8 10 9 11 9 9 8 9 8 8 8 8 8 9 8 7 8 8 8 8 8 8 7 7 6 6 7 6 5 6 7 7 6 6
Wind_Direction
311 318 317 299 42 127 53 360 123 341 56 39 6 40 164 32 194 18 221 342 10 249 218 49 162 108 220 237 152 129 177 107 227 137 196 235 267 282 289 333 316 258 202 185 184 169 167 140 99 83 65 50 121 111 111 111 103 98 95 94 91 90 92 96 96 94 92 90 91 92 91 85 78 74 69 66 62 58 56 54 51 52 53 55 56 57 57 57 57 60 63 65 67 71 76 82 84
299 309 24 34 348 42 2 134 96 350 42 85 200 99 248 278 58 211 166 204 207 79 17 120 107 98 65 74 97 124 73 348 176 41 282 235 309 273 355 22 317 221 180 184 166 148 138 93 104 95 74 56 128 118 115 114 111 102 95 95 96 95 98 99 99 98 95 94 95 94 92 88 80 74 71 67 62 59 57 54 52 52 53 55 57 58 59 60 61 62 63 65 67 71 79 85 87
352 2 337 19 35 76 101 27 355 5 76 36 279 207 339 129 213 243 218 203 175 158 302 337 136 44 26 35 18 65 131 295 251 268 237 332 158 328 351 347 279 251 199 170 153 143 127 125 107 126 125 67 127 122 124 124 120 111 106 104 104 106 102 97 97 97 97 98 97 95 93 89 86 80 73 69 65 61 57 55 54 54 55 56 58 60 61 63 64 63 62 64 68 74 80 82 81
50 47 172 69 57 28 50 32 86 120 111 196 320 257 194 172 233 202 227 235 183 0 322 50 93 228 117 53 155 218 37 89 191 176 15 8 3 314 319 318 283 208 230 150 130 111 136 157 142 138 131 115 138 138 132 127 120 109 107 109 110 109 103 102 102 102 101 103 103 101 102 98 92 85 78 72 68 66 63 60 57 55 57 59 60 62 64 65 65 64 64 68 71 74 77 77 76
57 339 83 114 109 9 102 99 126 102 75 201 142 258 243 214 158 196 269 261 271 196 202 217 97 351 175 104 192 124 165 72 302 212 264 267 273 304 303 297 232 171 178 162 122 138 180 148 166 138 150 134 195 157 139 129 120 109 108 114 117 112 111 109 106 108 107 107 107 107 104 95 89 84 79 74 71 68 65 63 61 59 58 61 63 65 65 65 64 64 66 70 74 75 74 76 77
47 37 11 76 69 172 75 65 54 81 221 153 109 234 211 207 163 191 246 304 313 201 183 133 168 182 58 313 193 87 193 92 188 232 166 250 325 330 311 293 186 167 161 169 131 162 153 180 195 174 158 166 181 189 144 136 129 120 119 125 126 122 118 112 115 115 116 112 111 110 102 94 89 86 80 76 72 70 68 65 64 62 61 63 66 69 69 68 67 66 70 73 72 70 72 73 72
251 39 1 46 34 46 137 120 156 165 148 167 236 258 207 200 216 134 18 69 312 94 209 260 99 95 72 297 9 233 195 113 98 204 182 314 320 319 302 244 167 168 156 167 160 146 170 197 209 169 171 164 184 121 146 144 134 133 129 133 133 127 124 123 123 122 117 117 109 108 105 99 94 89 83 79 76 74 71 69 67 66 66 67 69 71 72 71 70 70 73 72 73 71 71 70 68
65 142 328 95 5 43 47 141 153 176 12 183 269 252 255 217 178 157 181 127 198 180 56 233 324 120 242 58 164 304 335 207 225 266 256 286 304 323 231 190 160 157 153 154 177 151 166 194 351 213 155 158 176 161 170 143 146 135 132 139 139 135 130 129 123 119 120 119 119 117 109 102 98 92 86 81 78 75 74 72 71 69 69 72 74 74 74 73 72 74 75 75 72 73 71 71 72
11 83 248 71 55 28 70 78 211 252 283 275 274 222 303 194 177 125 161 241 322 324 252 200 255 118 222 49 193 307 288 260 293 271 294 321 334 0 178 198 159 145 201 159 179 158 153 158 150 200 170 166 158 266 180 160 155 146 140 142 146 140 137 127 122 126 126 122 121 119 113 107 102 98 92 86 82 78 77 75 73 71 72 75 75 75 75 75 76 76 76 76 76 72 72 70 69
42 40 81 107 135 43 25 277 105 181 243 224 229 198 195 193 170 55 148 87 192 104 226 309 210 98 115 177 329 308 138 302 280 149 357 359 9 61 113 153 155 147 189 164 161 131 133 156 173 189 214 159 167 193 188 176 158 150 146 148 148 146 138 129 128 129 129 128 126 123 118 115 109 103 95 90 87 84 82 79 76 76 76 77 76 76 76 76 77 78 79 79 76 72 70 68 65
14 21 141 77 35 100 151 214 267 318 261 313 276 236 218 166 122 108 79 164 30 155 282 165 167 142 132 260 202 301 315 349 142 156 318 327 18 60 67 55 54 128 163 214 86 150 122 153 176 175 193 150 184 190 193 159 167 155 146 148 148 144 139 135 133 131 132 130 131 128 121 113 103 103 98 93 90 88 85 83 81 81 80 79 78 77 77 79 79 79 80 80 76 73 71 69 67
47 25 14 97 141 152 217 157 240 279 299 340 154 83 201 154 105 99 173 138 197 246 171 161 268 146 109 326 277 195 325 48 32 248 299 318 84 69 77 60 65 60 61 95 136 18 154 199 136 155 201 161 180 193 132 185 162 149 153 151 143 142 139 142 138 139 135 137 138 133 120 106 109 111 103 99 94 92 90 87 85 83 83 82 81 81 80 80 81 81 81 81 77 75 73 71 69
111 93 87 81 166 115 144 109 203 299 345 272 168 216 137 128 176 188 177 108 81 114 284 201 135 230 237 194 250 308 134 300 273 258 330 73 103 90 67 73 74 54 53 67 60 35 31 38 56 86 40 119 132 164 167 184 139 145 157 158 140 141 142 143 141 142 141 140 136 127 121 120 121 112 108 104 100 96 95 91 88 84 83 82 83 84 84 83 84 84 83 80 77 75 73 70 67
116 177 124 134 30 121 135 164 350 163 248 242 273 112 190 137 238 178 131 143 201 172 241 185 147 176 249 358 236 216 216 223 260 66 319 85 99 85 70 64 63 54 41 49 57 26 25 29 1 64 103 129 147 112 160 113 62 138 154 146 145 140 144 144 140 138 139 135 129 123 120 123 123 118 115 111 109 104 100 96 92 89 86 85 84 84 86 87 86 85 83 81 78 75 73 71 67
106 168 83 115 55 91 236 131 196 164 226 182 166 143 162 273 103 144 166 163 245 209 308 298 216 124 235 153 278 209 188 211 168 265 109 94 85 83 80 78 74 62 48 59 64 37 16 23 2 24 20 37 108 157 178 82 123 9 125 139 151 143 144 137 134 135 128 123 122 122 122 124 124 123 113 105 103 97 93 91 90 91 90 88 86 85 86 87 87 86 84 82 80 78 75 72 67
134 93 79 101 166 141 221 125 356 106 250 177 165 242 97 346 198 132 245 165 171 356 27 193 41 212 13 172 243 255 245 265 195 298 131 90 81 73 86 72 78 71 50 42 57 37 5 27 355 47 36 40 350 312 169 169 161 156 115 126 144 151 138 127 118 104 103 114 118 122 119 119 121 115 111 103 98 97 96 93 92 91 91 89 88 88 88 89 88 87 85 83 80 77 74 71 67
66 84 64 49 179 177 208 152 148 192 239 244 275 183 148 210 136 257 116 70 124 193 357 201 196 46 201 198 277 279 280 246 167 175 113 94 114 113 64 77 71 76 40 45 45 27 5 15 7 35 36 29 4 2 219 156 160 143 115 123 121 121 123 115 106 106 109 111 115 116 118 119 115 115 106 104 98 98 102 99 95 93 93 93 91 91 91 91 90 89 88 85 81 77 73 69 65
53 72 113 122 202 152 202 178 187 203 122 217 190 206 116 164 206 195 124 40 44 347 242 301 291 250 217 243 265 262 284 177 191 154 138 142 152 134 131 74 32 90 60 40 45 22 2 1 360 22 24 19 3 24 273 166 156 171 150 139 126 126 120 121 121 123 122 124 118 126 128 125 121 120 119 117 104 107 103 105 107 103 100 96 94 95 95 93 91 90 87 85 83 80 74 70 65
83 129 84 204 178 236 165 192 188 119 275 158 181 119 150 198 146 209 98 269 0 229 277 16 306 290 296 312 338 157 166 168 164 162 155 160 169 172 161 140 96 11 52 18 21 15 6 337 5 26 17 5 357 1 296 172 175 169 159 140 133 127 129 133 134 130 133 133 139 132 137 137 140 134 136 133 110 113 108 104 96 101 104 98 96 98 99 95 91 88 84 83 83 81 74 71 68
197 113 165 255 204 223 208 177 183 237 141 126 153 168 144 202 142 133 212 160 52 215 220 291 265 250 219 231 104 149 170 165 150 163 159 153 162 171 176 170 133 66 6 352 325 307 0 16 346 37 17 345 1 316 298 271 201 173 161 151 134 143 147 146 148 138 144 147 145 139 135 139 142 133 118 120 116 116 108 93 86 77 80 84 87 85 81 81 83 78 77 78 76 71 76 76 72
208 70 157 218 171 96 212 186 224 195 136 147 130 97 132 232 201 163 174 127 247 254 232 197 213 227 211 193 163 169 173 177 157 152 144 130 90 91 174 310 114 8 326 311 334 351 353 352 344 4 354 339 353 324 320 336 244 180 142 149 143 147 157 147 160 147 155 157 149 137 139 142 141 139 130 140 124 128 121 120 109 98 93 89 90 87 88 79 73 72 71 61 66 70 71 69 72
96 57 198 162 153 53 232 203 166 154 229 107 118 127 206 92 83 133 151 185 237 209 238 211 224 208 173 180 181 171 179 185 179 167 165 159 160 157 140 247 296 295 294 51 0 331 336 329 335 347 336 336 320 289 317 318 0 34 143 144 142 145 145 146 150 158 163 163 158 149 149 142 145 142 148 137 139 135 132 133 119 110 104 101 99 89 86 87 83 83 78 73 68 70 70 70 65
87 339 325 207 221 117 308 207 210 141 131 126 143 210 85 141 193 187 181 213 229 216 222 230 235 207 203 131 143 171 181 191 189 184 165 154 152 162 168 201 133 20 6 15 330 335 324 334 352 347 334 323 307 200 158 61 52 62 58 134 152 150 147 144 153 136 191 166 162 159 162 159 142 157 158 155 152 140 140 137 124 118 111 101 100 104 92 89 91 89 86 84 80 77 76 74 71
105 150 78 238 179 336 202 231 121 158 126 181 194 78 159 125 237 126 210 241 225 233 247 248 244 227 160 148 176 176 181 185 190 182 192 181 166 172 159 137 151 208 56 349 357 335 342 344 340 334 317 306 279 196 105 128 112 95 95 87 62 105 143 150 153 142 72 133 170 171 173 167 164 162 155 163 156 144 140 132 126 119 111 103 99 102 102 96 94 90 90 88 88 79 79 78 77
77 85 205 197 106 274 318 134 127 99 80 31 130 137 230 189 187 72 247 242 221 99 97 83 118 128 141 155 169 168 169 166 167 187 173 186 166 167 200 192 159 99 54 354 326 354 340 325 336 321 314 303 242 100 59 63 105 92 103 96 96 91 51 121 132 135 132 124 83 100 158 163 155 144 134 124 110 131 129 126 118 103 109 112 110 102 104 106 99 101 94 90 88 90 84 82 81
93 153 134 54 94 325 182 78 75 27 79 135 103 254 294 257 267 246 245 242 202 143 85 107 125 134 163 174 173 171 174 179 164 162 177 167 173 151 150 150 133 113 137 299 12 349 338 335 335 317 318 311 231 129 98 55 90 89 70 78 96 101 118 99 106 110 122 123 119 119 127 132 121 113 115 100 116 102 101 104 106 111 98 106 116 108 104 103 107 102 98 95 90 86 84 81 84
117 117 81 116 302 326 37 170 16 247 188 197 190 283 104 333 81 277 341 208 143 105 105 135 155 167 178 174 179 185 173 182 179 150 128 161 174 178 175 146 129 138 115 137 57 336 317 330 350 355 343 340 26 66 112 87 57 95 83 81 66 106 119 108 106 97 91 105 117 116 105 101 110 113 114 119 119 117 110 105 107 106 105 110 108 97 81 98 100 95 96 97 96 93 87 83 82
51 134 147 20 343 88 359 55 345 337 256 171 183 251 168 308 96 241 203 132 191 151 161 162 176 181 182 185 184 184 196 192 171 165 176 178 189 180 177 165 178 151 164 166 207 310 277 19 17 18 19 21 52 73 93 113 87 65 82 74 79 72 94 92 91 82 74 79 88 104 108 108 111 114 112 111 119 119 115 111 112 102 102 102 100 101 99 81 91 90 88 86 83 86 91 80 77
83 178 152 304 356 337 3 351 321 351 259 151 154 342 274 162 229 239 295 134 122 161 181 198 201 204 208 207 201 199 205 189 184 199 204 196 173 181 170 189 154 182 204 179 154 157 72 43 22 43 51 44 68 80 82 89 92 77 77 85 74 46 82 94 77 62 58 76 76 104 108 111 107 113 98 98 103 103 111 110 92 77 83 97 94 104 108 106 101 100 95 95 87 82 87 84 78
102 36 90 338 0 340 342 307 356 128 266 126 292 276 246 238 240 250 229 137 106 168 223 216 220 220 227 226 221 226 225 198 209 211 199 201 188 186 167 173 174 192 185 156 149 113 95 85 76 56 54 64 76 89 90 102 107 110 98 77 63 75 72 75 85 80 52 75 77 90 97 103 111 107 107 103 98 95 90 90 106 99 102 111 115 113 104 101 102 101 100 95 95 91 86 86 84
147 299 63 64 26 278 295 93 321 159 212 178 55 237 267 267 269 280 299 175 166 216 227 220 221 230 228 227 227 227 229 213 214 213 215 208 201 187 160 181 188 189 149 174 146 128 113 94 79 76 67 82 79 73 80 87 96 96 83 73 60 61 75 77 73 76 68 68 76 78 88 102 102 98 91 110 114 110 99 91 80 101 113 105 99 108 111 104 105 107 116 106 99 84 85 77 79
25 65 289 326 148 278 296 266 185 185 354 140 137 270 260 275 272 311 325 174 190 228 231 231 227 224 226 225 229 234 236 222 238 236 221 210 202 185 177 190 188 174 181 162 140 139 121 110 96 102 90 91 84 85 89 87 86 78 75 86 80 67 77 65 56 65 81 77 77 77 79 94 97 104 105 106 110 114 115 110 110 106 109 115 112 117 114 114 113 109 110 119 113 100 97 87 83
358 71 264 231 56 264 333 11 252 336 106 340 183 241 336 293 275 331 216 169 204 243 257 246 238 234 229 225 226 235 246 245 243 231 220 203 205 195 183 191 184 182 167 164 158 144 131 118 110 107 110 109 103 94 94 89 82 74 80 85 87 71 64 66 65 56 61 71 74 81 85 91 98 106 110 114 117 116 113 114 118 117 112 110 112 110 112 121 123 119 111 92 107 118 102 99 91
307 19 207 203 184 257 262 311 72 329 120 212 255 228 243 254 273 261 205 173 175 239 253 252 246 243 232 234 228 225 226 227 227 209 209 196 195 200 184 192 182 167 169 167 165 161 145 137 122 116 116 109 105 105 97 96 86 88 83 85 87 78 68 60 53 55 61 72 83 83 91 92 91 101 102 123 113 108 111 114 119 121 125 120 117 117 113 125 117 118 109 96 103 113 110 109 104
208 162 264 290 281 207 254 330 254 108 21 203 301 247 261 266 273 273 213 184 188 228 239 249 250 241 237 227 227 226 226 222 230 200 189 191 193 198 187 188 170 167 168 164 158 145 136 132 123 125 125 125 112 108 106 92 85 77 75 79 71 72 74 68 67 65 55 67 77 83 91 102 102 90 104 124 115 118 115 110 115 122 125 120 117 117 112 109 106 109 113 105 72 78 113 112 117
177 166 174 165 175 212 201 236 279 181 240 231 231 237 250 255 263 270 246 186 195 239 262 267 251 244 239 228 230 226 226 233 222 182 188 186 187 189 185 180 172 172 166 162 153 150 140 134 131 127 133 130 126 123 120 105 100 97 101 91 76 55 63 74 60 59 49 61 63 77 89 99 95 101 110 111 109 115 119 122 121 126 132 130 126 121 124 127 128 120 110 116 111 93 82 112 125
104 92 109 192 205 281 281 272 260 246 302 233 234 245 250 264 265 265 266 143 234 257 260 253 245 236 232 232 229 228 226 231 168 187 185 188 189 188 184 168 172 171 170 163 157 159 158 152 149 150 153 149 144 143 141 137 130 112 65 67 101 92 85 70 60 53 49 47 54 53 78 91 92 100 103 109 108 110 104 114 115 115 123 125 123 127 129 124 124 120 119 114 123 120 109 129 114
133 115 161 266 166 248 233 208 33 295 173 295 291 273 261 256 265 266 263 172 243 230 241 249 251 235 232 228 232 228 228 102 155 187 197 193 190 189 181 176 177 181 182 168 174 168 161 158 156 153 155 161 152 148 136 125 120 139 137 133 123 110 111 102 98 75 66 43 51 35 52 78 79 82 93 97 104 116 124 123 125 134 137 128 116 121 128 128 131 129 130 111 55 118 124 173 130
64 184 189 309 265 249 275 278 323 275 97 266 311 282 270 266 258 263 256 243 240 225 223 238 239 244 232 230 233 233 200 212 181 205 191 195 189 185 184 188 192 188 175 171 175 167 167 165 159 156 161 159 149 134 122 121 105 86 109 126 126 102 51 70 84 89 79 64 52 37 47 63 72 71 68 76 103 108 117 123 134 135 131 133 128 129 133 137 145 145 152 135 130 40 92 37 16
138 110 117 231 234 14 303 300 11 35 177 284 317 300 281 265 249 249 247 236 242 236 236 241 240 245 241 231 224 219 217 208 201 191 195 186 182 187 189 192 193 185 175 176 179 178 169 171 161 157 157 148 139 130 116 89 88 89 81 90 85 78 119 94 89 79 73 72 59 37 49 53 56 70 67 80 103 97 117 122 126 131 134 149 140 138 145 145 149 144 136 136 130 135 150 96 24
272 191 199 218 191 232 191 255 301 254 21 52 313 276 275 244 254 258 257 263 264 260 249 255 255 243 248 263 247 214 216 204 202 189 190 182 186 196 193 188 185 189 183 184 178 180 168 175 163 158 149 149 134 131 128 128 117 96 99 93 94 97 81 87 86 72 58 82 90 45 50 53 70 76 74 81 95 105 107 116 121 123 128 132 141 135 144 146 141 134 144 148 170 144 141 130 60
292 232 199 213 205 228 272 343 8 360 334 356 43 319 281 296 255 252 271 334 285 261 237 249 250 247 240 240 240 229 227 201 197 193 191 190 188 179 189 185 191 192 188 184 176 175 174 171 158 148 136 138 141 137 139 145 150 139 142 131 128 106 129 153 163 149 147 129 117 119 73 56 69 79 76 85 89 103 111 111 117 123 124 124 128 120 117 123 133 142 157 155 129 45 130 123 112
67 271 201 214 208 193 212 266 60 294 241 320 35 57 291 193 235 232 254 249 258 277 245 253 256 253 240 236 243 225 212 201 203 197 190 183 189 184 190 190 192 191 190 159 167 175 174 168 160 150 147 140 142 143 146 140 134 145 150 157 161 157 154 116 77 73 115 119 119 89 79 63 54 78 79 79 90 97 106 107 111 110 112 113 120 127 129 127 125 123 138 127 103 123 138 112 135
239 257 142 146 152 188 215 166 188 237 258 302 37 131 273 294 226 221 213 226 254 282 274 264 253 249 239 240 240 222 205 201 195 197 192 192 185 187 190 188 186 191 170 160 167 171 174 167 154 153 146 151 155 154 160 164 154 163 151 127 130 134 147 148 144 121 115 125 106 87 83 73 65 62 83 83 84 94 106 106 112 118 114 116 126 124 122 124 111 85 87 93 105 100 130 134 143
219 260 133 141 161 176 122 132 168 2 15 289 321 7 297 257 297 354 151 225 264 257 256 258 259 259 252 235 228 222 213 205 194 190 191 188 189 193 188 183 182 175 166 171 171 168 161 159 156 149 152 151 157 164 165 170 167 150 140 133 120 85 107 126 121 120 124 124 104 97 88 85 78 67 64 81 82 93 98 113 117 117 116 118 117 113 112 121 124 129 129 120 119 97 97 113 126
228 121 87 81 76 66 101 98 103 317 52 263 198 175 225 280 229 139 356 183 229 237 244 250 256 284 264 244 241 235 233 215 206 204 191 191 189 186 183 168 172 180 169 160 159 157 158 157 157 154 154 157 161 166 169 165 156 146 143 151 131 131 131 123 125 129 133 137 111 109 106 100 97 91 77 72 84 83 98 102 108 112 115 117 115 115 116 110 110 98 105 118 121 108 98 109 113
130 105 77 37 41 36 34 62 84 45 258 249 189 198 167 276 323 171 145 198 202 220 260 274 272 304 267 244 242 239 220 200 193 185 180 180 173 173 170 174 172 167 163 160 158 162 164 163 154 162 158 154 164 166 167 166 161 162 154 155 148 141 148 139 134 130 134 131 131 125 120 112 104 101 104 89 81 98 95 91 102 104 105 109 114 120 120 117 114 108 105 99 97 107 112 106 97
121 110 127 83 350 10 34 342 34 110 266 259 312 203 191 223 287 267 238 281 266 213 227 247 267 271 268 256 244 229 207 190 174 170 168 159 156 176 178 175 174 174 172 168 162 162 166 166 161 159 154 159 163 165 167 166 160 164 152 155 155 154 151 156 153 155 165 150 147 135 129 119 112 108 108 108 102 98 105 101 99 104 105 110 103 103 107 111 111 109 105 103 100 92 103 102 104
85 95 93 125 243 31 288 24 260 195 238 214 310 126 326 238 245 251 267 263 262 218 225 238 253 268 261 260 247 224 191 179 177 176 169 173 175 178 184 177 172 178 180 176 165 166 168 168 170 161 164 165 168 171 173 168 162 168 163 162 158 160 161 157 154 157 159 155 151 141 150 141 139 133 139 124 120 120 124 121 123 121 114 103 112 111 112 114 114 110 108 103 105 112 122 124 112
142 158 148 107 149 222 268 276 282 308 291 266 291 67 250 299 297 219 248 246 239 230 233 239 237 248 252 246 223 200 197 191 190 179 181 183 179 182 184 178 178 177 179 180 172 170 172 174 173 176 165 170 170 176 171 167 177 171 165 163 162 165 164 159 159 159 164 156 157 153 157 154 154 153 147 142 139 128 107 101 108 100 99 111 117 116 113 111 114 111 110 103 97 99 103 95 98
201 103 162 182 148 154 213 196 211 231 229 288 280 76 237 102 245 246 235 287 323 258 256 242 245 250 259 271 211 193 199 206 190 189 188 187 186 179 181 183 180 179 177 176 177 172 172 177 178 179 170 174 171 175 172 176 173 166 160 157 158 171 164 162 162 162 155 153 158 153 148 153 152 153 151 136 133 120 117 115 109 110 118 123 128 119 110 106 105 98 92 96 90 88 91 97 100
207 158 77 87 221 138 231 202 182 286 340 331 202 215 200 209 250 294 254 278 282 253 255 270 269 254 242 261 236 207 213 204 198 197 191 190 185 179 178 184 184 181 181 179 182 174 177 180 179 179 170 169 175 176 182 178 173 163 160 160 166 165 154 131 127 131 135 147 152 157 151 150 146 141 134 133 131 131 130 121 113 114 123 123 112 107 106 102 102 103 104 107 103 95 108 103 114
202 111 205 207 152 109 85 41 69 81 46 258 132 278 265 299 274 241 247 244 255 271 270 258 249 262 6 265 258 229 219 209 205 206 197 184 179 187 186 183 183 183 184 185 186 181 178 174 177 175 174 173 176 183 180 179 163 160 168 167 160 160 162 162 157 151 147 140 148 149 148 143 136 142 136 136 132 128 125 123 122 122 118 112 105 99 102 104 110 110 118 117 112 118 110 116 128
97 185 228 151 132 112 142 223 359 70 206 274 122 252 290 56 285 18 63 197 245 252 246 246 292 330 247 248 235 224 219 213 206 205 204 194 187 185 186 188 186 186 186 184 184 179 179 178 179 174 171 174 183 182 179 173 161 163 162 170 169 171 164 159 153 150 150 146 149 145 140 144 155 147 142 140 136 132 128 130 126 124 121 114 110 110 109 114 116 107 110 101 111 120 113 108 109
145 196 195 127 222 231 286 88 260 215 251 280 290 261 261 189 255 223 275 214 256 245 251 301 264 244 240 243 233 224 219 209 203 204 197 190 190 188 187 189 186 186 185 186 180 175 178 179 182 181 177 180 177 179 175 169 168 174 175 172 170 164 164 156 150 149 152 158 159 160 161 150 138 148 145 146 144 141 139 137 135 131 130 123 117 116 121 119 124 119 118 119 123 125 122 120 125
35 64 133 55 99 154 133 197 182 119 267 37 287 73 276 192 219 172 227 216 232 257 280 262 262 248 237 239 233 219 215 213 207 202 200 195 193 191 187 185 184 183 181 182 180 178 182 180 177 183 180 173 169 172 169 174 177 167 162 150 166 172 164 161 159 157 165 171 165 160 156 155 158 150 152 148 148 146 147 144 147 140 135 130 125 124 126 123 128 126 133 130 134 131 125 128 137
104 127 204 143 16 247 110 19 143 171 183 190 277 299 268 250 186 182 208 214 208 212 234 222 263 267 254 238 229 225 219 215 211 202 197 193 189 186 188 189 189 186 185 181 181 182 180 176 184 182 176 173 176 182 179 181 166 170 159 170 171 168 169 165 159 167 166 168 162 162 164 154 142 159 152 153 152 150 150 148 146 150 145 141 135 132 131 133 132 133 129 127 133 137 134 138 141
180 182 191 184 148 150 140 249 56 121 150 234 166 253 277 264 213 172 198 218 193 202 232 199 242 250 229 231 231 222 222 219 205 198 191 191 183 179 178 179 185 187 188 185 183 177 180 187 185 178 179 181 178 181 184 177 177 170 170 173 177 170 163 162 165 171 172 165 164 167 158 150 161 151 159 153 151 147 149 153 152 151 145 138 134 131 139 142 143 138 136 140 144 146 145 148 156